Regional Weather Roundup
Issued by NWS Newport/Morehead, NC

Current Version | Previous Version | Text Only | Print | Product List | Glossary On
Versions: 1 2 3 4 5 6 7 8 9 10 11 12 13 14 15 16 17 18 19 20 21 22 23 24 25 26 27 28 29 30 31 32 33 34 35 36 37 38 39 40 41 42 43 44 45 46 47 48 49 50
006
ASUS42 KMHX 100313
RWRMHX
WEATHER ROUNDUP FOR EASTERN NORTH CAROLINA
NATIONAL WEATHER SERVICE NEWPORT/MOREHEAD CITY NC
1000 PM EST TUE FEB 09 2016

NOTE: "FAIR" INDICATES FEW OR NO CLOUDS BELOW 12,000 FEET
WITH NO SIGNIFICANT WEATHER AND/OR OBSTRUCTIONS TO VISIBILITY

NCZ015>017-031-032-045>047-102-103-100400-
NORTH COAST

CITY           SKY/WX    TMP DP  RH WIND       PRES   REMARKS
EDENTON        CLOUDY    40  29  63 W6        29.77R
ELIZABETH CITY CLOUDY    39  26  59 W10       29.74R
KITTY HAWK     CLOUDY    41  29  63 W7G22     29.72S
MANTEO         CLOUDY    40  31  67 W10G18    29.74S

$$

NCZ045>047-081-094-103-104-100400-
CENTRAL COAST

CITY           SKY/WX    TMP DP  RH WIND       PRES   REMARKS
FRISCO         CLEAR     42  25  50 W17G31    29.77R
SWANQUARTER      N/A     41 N/A N/A W9G18     29.77R

$$

NCZ095-097-098-100-101-100400-
SOUTHERN COAST

CITY           SKY/WX    TMP DP  RH WIND       PRES   REMARKS
BEAUFORT       CLEAR     40  27  59 W15G29    29.81R
CEDAR ISLAND     N/A     41 N/A N/A W9G21     29.82S
JACKSONVILLE   MOCLDY    37  24  59 W6        29.82R
PINEY ISLAND   CLOUDY   N/A N/A N/A W16       29.79R
WILMINGTON     MOCLDY    40  25  55 W12       29.84R


$$

NCZ011>013-027>030-043-044-078>080-089-090>093-098-100400-
COASTAL PLAIN

CITY           SKY/WX    TMP DP  RH WIND       PRES   REMARKS
AHOSKIE        CLOUDY    36  22  56 CALM      29.77R
CLINTON        MOCLDY    38  23  53 NW7       29.82F
ELIZABETHTOWN  CLOUDY    39  24  55 W7        29.83S
GOLDSBORO      CLOUDY    39  19  45 W15       29.79R
GREENVILLE     CLOUDY    37  25  60 W5        29.82R
HAVELOCK       CLOUDY    41  26  55 W13       29.81R
KENANSVILLE    CLOUDY    38  22  52 W7        29.82S
KINSTON        MOCLDY    39  21  49 SW8       29.81R
NEW BERN       CLOUDY    40  22  48 W9        29.81R
RICHLANDS      CLOUDY    37  23  56 SW6       29.81S
ROCKY MOUNT    CLOUDY    36  20  52 VRB6      29.79R
WASHINGTON     CLOUDY    38  22  53 W8G16     29.78R
WHITEVILLE     MOCLDY    38  25  58 SW6       29.85R

$$

AMZ130-135-150-152-154-156-158-170-250-252-270-ANZ085-086-088-633-658-670-100400-
MARINE OBSERVATIONS

STATION/POSITION TIME  TEMP    WIND        PRES    WAVE   SWELL
                       AIR SEA DIR/SP/G            HT/PER HT/PER
                 (UTC) (F)     (DEG/KT/KT) (MB)    (FT/S) (FT/S)
CHESAPEAKE LIGHT 0300   42     270/ 23/ 26 1005.9
64 E VA BEACH    0250   44 50  270/ 23/ 29 1004.4   10/14   8/14
DUCK             0200   40     260/ 13/ 17 1006.1
2 E DUCK         0211      45                N/A     6/14   5/14
OREGON INLET     0200   41 46  260/  9/ 13 1006.8
13E OREGON INLT  0300      47                N/A     8/14   7/14
HATTERAS CG      0200   45 52  270/ 24/ 32 1007.1
DIAMOND BUOY     0250   47 73  280/ 25/ 33 1007.3   10/14   7/14
CAPE LOOKOUT     NOT AVBL
BEAUFORT LAB     0200   42 48  260/  8/ 17 1007.9
30 SE NEW RVR IN 0208   46 60              1008.9
30 SE NEW RVR IN 0225      60                N/A     9/ 9   3/14
27 SE WRIGHTSVLE 0208   45 60  290/ 23/ 31 1008.8
5 SE WRIGHTSVLE  0208   43 51  260/ 17/ 23 1010.2
225 S CAPE HAT   0250   58 68  280/ 31/ 37   N/A    18/10  13/10
41 SE CHARLESTON 0250   46 64  290/ 25/ 31 1012.5    8/ 7   3/13

$$




USA.gov is the U.S. government's official web portal to all federal, state and local government web resources and services.